Harlingen, TX

8:29 PM CDT on July 23, 2017 (GMT -0500)
Valley International

Weather History for KHRL - October, 2011

Change the Weather History Date:

Sunday, October 23, 2011

  Actual Average Record
Temperature  
Mean Temperature 77 °F 75 °F  
Max Temperature 92 °F 86 °F 96 °F (1931)
Min Temperature 62 °F 64 °F 46 °F (1965)
Degree Days  
Heating Degree Days 0 0  
Month to date heating degree days 0 0  
Since 1 July heating degree days 0 0  
Cooling Degree Days 12 10  
Month to date cooling degree days 310 275  
Year to date cooling degree days 4366 3704  
Growing Degree Days 26 (Base 50)    
Moisture  
Dew Point 61 °F    
Average Humidity 61    
Maximum Humidity 90    
Minimum Humidity 32    
Precipitation  
Precipitation 0.00 in 0.10 in 2.17 in (1981)
Month to date precipitation 0.24 2.22  
Year to date precipitation 6.66 21.65  
Sea Level Pressure  
Sea Level Pressure 29.98 in    
Wind  
Wind Speed 10 mph (SSE)    
Max Wind Speed 21 mph    
Max Gust Speed 31 mph    
Visibility 10 miles    
Events      
T = Trace of Precipitation, MM = Missing Value Source: NWS Daily Summary

Daily Weather History Graph

Daily Weather History Graph

Search for Another Location

Airport or City:

Trip Planner

Search our weather history database for the weather conditions in past years. The results will help you decide how hot, cold, wet, or windy it might be!

Date:

Astronomy

Oct. 23, 2011 Rise Set
Actual Time 7:33 AM CDT 6:55 PM CDT
Civil Twilight 7:10 AM CDT 7:19 PM CDT
Nautical Twilight 6:43 AM CDT 7:46 PM CDT
Astronomical Twilight 6:16 AM CDT 8:12 PM CDT
Moon 4:01 AM CDT (10/23) 4:31 PM CDT (10/23)
Length of Visible Light 12h 08m
Length of Day
11h 21m
Waning Crescent, 14% of the Moon is Illuminated
Oct 23
Waning Crescent
Oct 26
New
Nov 2
First Quarter
Nov 10
Full
Nov 18
Last Quarter

Hourly Weather History & Observations

Time (CDT) Temp. Heat Index Dew Point Humidity Pressure Visibility Wind Dir Wind Speed Gust Speed Precip Events Conditions
12:52 AM 66.0 °F - 60.1 °F 81% 29.99 in 10.0 mi SSE 8.1 mph - N/A   Clear
1:52 AM 69.1 °F - 62.1 °F 78% 29.97 in 10.0 mi SSE 10.4 mph - N/A   Clear
2:52 AM 69.1 °F - 61.0 °F 75% 29.96 in 10.0 mi SSE 9.2 mph - N/A   Clear
3:52 AM 68.0 °F - 61.0 °F 78% 29.95 in 10.0 mi SSE 9.2 mph - N/A   Clear
4:52 AM 66.9 °F - 60.1 °F 79% 29.94 in 10.0 mi SSE 6.9 mph - N/A   Clear
5:52 AM 66.0 °F - 60.1 °F 81% 29.95 in 10.0 mi SSE 6.9 mph - N/A   Clear
6:52 AM 62.1 °F - 57.9 °F 86% 29.96 in 10.0 mi SE 5.8 mph - N/A   Clear
7:52 AM 63.0 °F - 59.0 °F 87% 29.97 in 10.0 mi SE 4.6 mph - N/A   Clear
8:52 AM 72.0 °F - 64.0 °F 76% 29.99 in 10.0 mi SE 5.8 mph - N/A   Clear
9:52 AM 80.1 °F 81.7 °F 64.0 °F 58% 30.01 in 10.0 mi South 11.5 mph - N/A   Clear
10:52 AM 84.2 °F 85.0 °F 62.6 °F 48% 30.02 in 10.0 mi South 15.0 mph - N/A   Clear
11:52 AM 87.8 °F 88.5 °F 62.6 °F 43% 30.00 in 10.0 mi SSW 16.1 mph 23.0 mph N/A   Clear
12:52 PM 89.6 °F 89.5 °F 60.8 °F 38% 29.98 in 10.0 mi South 17.3 mph 25.3 mph N/A   Clear
1:52 PM 91.0 °F 90.0 °F 57.9 °F 33% 29.95 in 10.0 mi South 15.0 mph 23.0 mph N/A   Clear
2:52 PM 91.9 °F 90.6 °F 57.0 °F 31% 29.93 in 10.0 mi SSE 13.8 mph 21.9 mph N/A   Clear
3:52 PM 91.0 °F 90.0 °F 57.9 °F 33% 29.93 in 10.0 mi South 12.7 mph - N/A   Clear
4:52 PM 90.0 °F 88.8 °F 57.9 °F 34% 29.94 in 10.0 mi SSE 12.7 mph - N/A   Clear
5:52 PM 87.1 °F 86.5 °F 59.0 °F 39% 29.95 in 10.0 mi SSE 15.0 mph - N/A   Clear
6:52 PM 82.0 °F 82.7 °F 61.0 °F 49% 29.97 in 10.0 mi SSE 12.7 mph - N/A   Clear
7:52 PM 78.1 °F - 63.0 °F 60% 30.00 in 10.0 mi SE 9.2 mph - N/A   Clear
8:52 PM 75.0 °F - 62.1 °F 64% 30.03 in 10.0 mi SE 9.2 mph - N/A   Clear
9:52 PM 72.0 °F - 62.1 °F 71% 30.06 in 10.0 mi SE 8.1 mph - N/A   Clear
10:52 PM 70.0 °F - 62.1 °F 76% 30.07 in 10.0 mi SE 8.1 mph - N/A   Clear
11:52 PM 68.0 °F - 60.8 °F 78% 30.08 in 10.0 mi SSE 8.1 mph - N/A   Clear